sat.trackr.live / text

‹ back to catalog

UNICORN-2S

NORAD 68475 · 2026-067BM

PAYLOAD ACTIVE UNKNOWN

§ Identity

Operator
Country
GER
Launch date
2026-03-30
Launch site
AFWTR
Launch vehicle
Mass (kg)
RCS (m²)

External: N2YO · Heavens-Above · Gunter

§ Orbital elements

Epoch: 2026-09-20T02:48:51.936192Z

Period
96.42 min
Inclination
97.7594°
Eccentricity
0.0005918
Mean motion
14.93422439 rev/d
Perigee alt
583.2 km
Apogee alt
591.4 km
Semi-major
6,965.4 km
B*
5.3756e-4
RAAN
219.8602°
Arg perigee
91.6576°
Mean anomaly
268.5321°
Rev number
2,536

§ Raw data

UNICORN-2S1 68475U 26067BM  26263.11726778  .00005594  00000+0  53756-3 0  99902 68475  97.7594 219.8602 0005918  91.6576 268.5321 14.93422439 25362

JSON: /api/v1/satellites/68475 · /tle

For live sub-satellite position, see the globe view (requires WebGL).

§ Visibility from observer

Set your observer location to see the next 7 days of passes ≥ 10°. The values pass through the URL so the page stays shareable.

No JS? Fill the form by hand. The geolocation button needs JavaScript.